Location: Niagara
(43.2500°N, 79.0670°W)
Time: 05:55:57
(UTC-05:00)

Vanguard 2 - Visible Passes

Search period start: 18 December 2017 00:00
Search period end: 28 December 2017 00:00
Orbit: 553 x 2939 km, 32.9° (Epoch: 17 December)

Date Brightness Start Highest point End Pass type
(mag) Time Alt. Az. Time Alt. Az. Time Alt. Az.
18 Dec 9.6 17:36:54 10° WSW 17:41:47 23° SSW 17:45:28 10° SSE visible
19 Dec 9.8 17:55:18 10° WSW 17:59:30 19° SSW 18:02:48 10° SSE visible
20 Dec 10.0 18:14:05 10° WSW 18:17:08 14° SSW 18:19:43 10° S visible
24 Dec 10.4 17:15:37 10° WSW 17:20:33 18° SW 17:24:22 10° S visible
25 Dec 10.8 17:35:02 10° WSW 17:38:01 13° SW 17:40:34 10° SSW visible
27 Dec 12.7 07:21:07 10° SSE 07:26:43 12° SE 07:32:08 10° ESE visible
